Weather reports worldwide

Advertisment
Pratica Di Mare, Italy (16245): temperature & dewpoint: 08.07.2020 12:00:00 - 14.07.2020 12:00:00 (CEST)Pratica Di Mare, Italy (16245): wind speed: 08.07.2020 12:00:00 - 14.07.2020 12:00:00 (CEST)Pratica Di Mare, Italy (16245): wind direction: 08.07.2020 12:00:00 - 14.07.2020 12:00:00 (CEST)Pratica Di Mare, Italy (16245): reduced air pressure: 08.07.2020 12:00:00 - 14.07.2020 12:00:00 (CEST)Pratica Di Mare, Italy (16245): visibility: 08.07.2020 12:00:00 - 14.07.2020 12:00:00 (CEST)
Date & Time tt [°C] td [°C] ff [km/h] ff [kn] dd ppp [hPa] vv [km]
14.07.2020 12:00:00 - - - - - - -
14.07.2020 11:00:00 25,2 16,6 15 8 WSW 1012,3 15
14.07.2020 10:00:00 24,0 18,0 13 7 SW - 10
14.07.2020 09:00:00 25,0 17,0 4 2 ENE - 10
14.07.2020 08:00:00 20,0 12,0 13 7 NNE 1012,5 20
14.07.2020 07:00:00 19,0 11,0 13 7 N - 10
14.07.2020 06:00:00 19,0 10,0 13 7 NNE - 10
14.07.2020 05:00:00 19,4 9,6 13 7 NNE 1012,7 20
14.07.2020 04:00:00 20,0 10,0 13 7 NNE - 10
14.07.2020 03:00:00 20,0 11,0 15 8 NNE - 10
14.07.2020 02:00:00 20,8 11,4 13 7 NNE 1013,3 20
14.07.2020 01:00:00 21,0 13,0 8 4 NNE - 10
14.07.2020 00:00:00 22,0 18,0 8 4 N - 10
13.07.2020 23:00:00 22,6 19,0 5 3 NE 1013,1 20
13.07.2020 22:00:00 23,0 19,0 5 3 NNE - 10
13.07.2020 21:00:00 25,0 20,0 8 4 W - 10
13.07.2020 20:00:00 26,4 21,6 11 6 W 1013,3 20
13.07.2020 19:00:00 27,0 21,0 15 8 W - 10
13.07.2020 18:00:00 27,0 21,0 16 9 WSW - 10
13.07.2020 17:00:00 27,4 21,0 18 10 WSW 1014,5 20
13.07.2020 16:00:00 28,0 21,0 24 13 WSW - 10
13.07.2020 15:00:00 28,0 21,0 18 10 W - 10
13.07.2020 14:00:00 27,8 21,1 24 13 WSW 1015,2 20
13.07.2020 13:00:00 27,0 20,0 24 13 WSW - 10
13.07.2020 12:00:00 27,0 20,0 16 9 W - 10
13.07.2020 11:00:00 26,8 17,0 15 8 W 1015,6 20
13.07.2020 10:00:00 25,0 16,0 8 4 N - 10
13.07.2020 09:00:00 23,0 13,0 16 9 NNE - 10
13.07.2020 08:00:00 21,8 13,4 15 8 NNE 1015,5 20
13.07.2020 07:00:00 22,0 13,0 18 10 NNE - 10
13.07.2020 06:00:00 22,0 15,0 18 10 NNE - 10
13.07.2020 05:00:00 21,4 17,8 16 9 NE 1015,7 10
13.07.2020 04:00:00 22,0 20,0 15 8 NE - 10
13.07.2020 03:00:00 22,0 20,0 5 3 NE - 10
13.07.2020 02:00:00 22,0 20,5 4 2 NE 1015,5 10
13.07.2020 01:00:00 22,0 20,0 5 3 NNE - 10
13.07.2020 00:00:00 22,0 20,0 4 2 ENE - 10
12.07.2020 23:00:00 23,0 21,3 4 2 W 1015,4 10
12.07.2020 22:00:00 24,0 22,0 2 1 NW - 10
12.07.2020 21:00:00 25,0 23,0 8 4 WNW - 10
12.07.2020 20:00:00 26,0 23,3 9 5 W 1015,5 10
12.07.2020 19:00:00 26,0 23,0 13 7 W - 10
12.07.2020 18:00:00 27,0 22,0 13 7 WSW - 10
12.07.2020 17:00:00 26,6 22,0 13 7 WSW 1015,5 20
12.07.2020 16:00:00 27,0 22,0 13 7 SW - 10
12.07.2020 15:00:00 27,0 22,0 15 8 SW - 10
12.07.2020 14:00:00 26,4 22,2 15 8 SW 1016,3 20
12.07.2020 13:00:00 26,0 22,0 13 7 SW - 10
12.07.2020 12:00:00 26,0 21,0 16 9 WSW - 10
12.07.2020 11:00:00 25,8 20,8 16 9 WSW 1015,7 10
12.07.2020 10:00:00 26,0 21,0 15 8 SW - 10
12.07.2020 09:00:00 25,0 19,0 2 1 SE - 10
12.07.2020 08:00:00 24,0 21,1 4 2 ESE 1015,0 20
12.07.2020 07:00:00 20,0 18,0 8 4 NNE - 10
12.07.2020 06:00:00 20,0 18,0 8 4 NNE - 10
12.07.2020 05:00:00 20,0 18,3 8 4 N 1014,6 10
12.07.2020 04:00:00 20,0 19,0 8 4 N - 10
12.07.2020 03:00:00 21,0 19,0 8 4 N - 10
12.07.2020 02:00:00 21,6 19,9 8 4 N 1014,9 12
12.07.2020 01:00:00 22,0 21,0 5 3 N - 10
12.07.2020 00:00:00 - - - - - - -
11.07.2020 23:00:00 24,0 22,3 4 2 N 1015,0 20
11.07.2020 22:00:00 24,0 22,0 5 3 WNW - 10
11.07.2020 21:00:00 25,0 23,0 8 4 W - 10
11.07.2020 20:00:00 25,4 23,5 13 7 W 1014,6 25
11.07.2020 19:00:00 27,0 24,0 13 7 WSW - 10
11.07.2020 18:00:00 27,0 24,0 11 6 WSW - 10
11.07.2020 17:00:00 27,6 23,2 15 8 W 1015,1 25
11.07.2020 16:00:00 28,0 23,0 16 9 W - 10
11.07.2020 15:00:00 28,0 23,0 18 10 W - 10
11.07.2020 14:00:00 27,4 23,9 18 10 WSW 1015,3 25
11.07.2020 13:00:00 27,0 24,0 18 10 W - 10
11.07.2020 12:00:00 27,0 23,0 13 7 W - 10
11.07.2020 11:00:00 26,0 21,4 13 7 SW 1015,4 20
11.07.2020 10:00:00 26,0 22,0 11 6 WSW - 10
11.07.2020 09:00:00 25,0 21,0 11 6 W - 10
11.07.2020 08:00:00 21,4 18,2 4 2 N 1014,6 20
11.07.2020 07:00:00 19,0 16,0 5 3 NE - 10
11.07.2020 06:00:00 18,0 17,0 5 3 N - 10
11.07.2020 05:00:00 18,4 16,4 4 2 NNE 1014,4 12
11.07.2020 04:00:00 19,0 17,0 8 4 NNE - 10
11.07.2020 03:00:00 20,0 19,0 4 2 - - 10
11.07.2020 02:00:00 20,4 18,7 5 3 NNE 1015,1 12
11.07.2020 01:00:00 21,0 19,0 8 4 N - 10
11.07.2020 00:00:00 21,0 19,0 8 4 NNE - 10
10.07.2020 23:00:00 21,8 17,8 5 3 NNE 1014,5 12
10.07.2020 22:00:00 23,0 19,0 4 2 N - 10
10.07.2020 21:00:00 24,0 20,0 9 5 WNW - 10
10.07.2020 20:00:00 26,2 19,8 15 8 WNW 1014,1 20
10.07.2020 19:00:00 27,0 19,0 15 8 W - 10
10.07.2020 18:00:00 28,0 18,0 16 9 W - 10
10.07.2020 17:00:00 28,6 19,5 21 11 W 1014,5 20
10.07.2020 16:00:00 28,0 19,0 18 10 W - 10
10.07.2020 15:00:00 29,0 20,0 22 12 W - 10
10.07.2020 14:00:00 28,6 19,0 18 10 W 1015,1 20
10.07.2020 13:00:00 28,0 17,0 16 9 W - 10
10.07.2020 12:00:00 27,0 17,0 13 7 WSW - 10
10.07.2020 11:00:00 27,0 17,5 13 7 WSW 1015,1 20
10.07.2020 10:00:00 27,0 19,0 9 5 WSW - 10
10.07.2020 09:00:00 25,0 17,0 4 2 - - 10
10.07.2020 08:00:00 23,2 19,0 4 2 NW 1014,8 15
10.07.2020 07:00:00 20,0 18,0 9 5 WNW - 10
10.07.2020 06:00:00 19,0 17,0 8 4 N - 10
10.07.2020 05:00:00 19,8 18,3 5 3 WNW 1015,3 15
10.07.2020 04:00:00 20,0 19,0 8 4 N - 10
10.07.2020 03:00:00 22,0 20,0 22 12 NW - 10
10.07.2020 02:00:00 21,4 20,0 8 4 NNW 1015,8 15
10.07.2020 01:00:00 22,0 20,0 5 3 NNW - 10
10.07.2020 00:00:00 22,0 19,0 5 3 N - 10
09.07.2020 23:00:00 23,8 20,1 2 1 NNE 1015,5 15
09.07.2020 22:00:00 24,0 19,0 4 2 N - 10
09.07.2020 21:00:00 25,0 23,0 5 3 WNW - 10
09.07.2020 20:00:00 26,2 21,0 11 6 W 1015,4 15
09.07.2020 19:00:00 27,0 20,0 18 10 W - 10
09.07.2020 18:00:00 28,0 19,0 21 11 W - 10
09.07.2020 17:00:00 27,6 19,9 24 13 W 1015,8 15
09.07.2020 16:00:00 27,0 19,0 22 12 W - 10
09.07.2020 15:00:00 27,0 21,0 21 11 W - 10
09.07.2020 14:00:00 27,0 20,3 18 10 WSW 1016,4 15
09.07.2020 13:00:00 27,0 19,0 16 9 W - 10
09.07.2020 12:00:00 27,0 19,0 16 9 SW - 10
09.07.2020 11:00:00 26,2 19,8 15 8 WSW 1016,5 15
09.07.2020 10:00:00 26,0 20,0 5 3 WNW - 10
09.07.2020 09:00:00 25,0 21,0 4 2 N - 10
09.07.2020 08:00:00 22,4 18,8 4 2 NW 1016,4 10
09.07.2020 07:00:00 21,0 18,0 8 4 NNE - 10
09.07.2020 06:00:00 20,0 19,0 5 3 NNE - 10
09.07.2020 05:00:00 20,0 18,3 5 3 N 1015,8 10
09.07.2020 04:00:00 20,0 19,0 8 4 N - 10
09.07.2020 03:00:00 21,0 19,0 8 4 NNE - 10
09.07.2020 02:00:00 25,6 24,0 5 3 NNE 1015,8 10
09.07.2020 01:00:00 21,0 19,0 8 4 N - 10
09.07.2020 00:00:00 21,0 19,0 4 2 NNE - 10
08.07.2020 23:00:00 21,8 20,3 5 3 NNE 1015,5 10
08.07.2020 22:00:00 23,0 21,0 4 2 N - 10
08.07.2020 21:00:00 24,0 22,0 8 4 W - 10
08.07.2020 20:00:00 25,0 23,2 9 5 WSW 1015,3 10
08.07.2020 19:00:00 26,0 23,0 15 8 WSW - 10
08.07.2020 18:00:00 26,0 22,0 13 7 WSW - 10
08.07.2020 17:00:00 26,2 21,2 15 8 SW 1015,4 20
08.07.2020 16:00:00 26,0 21,0 18 10 SW - 10
08.07.2020 15:00:00 26,0 19,0 18 10 SSW - 10
08.07.2020 14:00:00 26,8 19,2 21 11 S 1015,5 20
08.07.2020 13:00:00 27,0 17,0 21 11 S - 10
08.07.2020 12:00:00 26,0 20,0 16 9 SSW - 10

tt = temperature
td = dewpoint
ff = wind speed
dd = wind direction
ppp = reduced air pressure
vv = visibility

Next stations